CAPE
2494 2577 2641 2617 2491 2478 2431 2067 1749 1911 1988 1731 1748 1804 1655 1560 1379 1397 1299 1180 1052 1091 996 908 742 1361 1223 874 612 608 691 545 470 344 216 447 824 800 917 960 850 783 700 798 852 928 824 835 1110 1047 1149 842 1116 964 1063 1026 1096 956 995 1193 1191 1065 1042 1075 1075 1068 1026 1064 1040 1076 1150 1481 1264 1492 1562 1524 1488 1414 1290 1235 1128 950 938 897 935
2490 2566 2563 2600 2550 2328 2265 2089 1858 2090 1699 1670 1576 1396 1400 1348 1205 1301 1234 1065 1104 1183 884 747 790 876 920 857 735 714 498 381 359 298 274 218 632 598 782 738 621 705 784 894 896 927 872 1070 1072 1200 1160 1164 1159 998 983 968 1028 1114 1153 1160 1094 1151 1152 1063 1023 1009 1019 961 1062 934 1025 1474 1352 1321 1389 1367 1355 1284 1167 1008 1012 796 997 946 997
2519 2587 2547 2545 2503 2279 2239 1996 1860 1844 1728 1566 1534 1541 1508 1417 1311 1253 1173 1122 1038 902 1026 918 968 806 820 676 660 480 352 400 352 268 234 256 392 440 452 559 479 1004 855 912 964 985 875 1008 1103 960 972 964 935 985 1049 1021 1140 1073 1088 1105 1210 1092 1142 1127 1149 974 919 830 807 904 1100 1091 1143 1240 1218 1151 1150 1209 1196 1072 938 746 611 769 634
2436 2570 2558 2603 2560 2368 2290 2066 1905 2033 1894 1632 1401 1347 1323 1280 1274 1268 1167 1211 1073 990 842 953 960 851 812 786 653 418 438 386 350 363 330 290 308 302 397 451 415 564 993 1024 1049 1031 911 1055 1122 1260 1168 1031 989 1265 1033 876 1059 980 1010 1138 1073 1039 1009 1004 1017 1078 1179 1164 995 677 594 485 721 986 1017 1144 1093 951 985 913 1039 1082 793 525 501
2418 2615 2602 2447 2276 2305 2232 1978 1874 1950 1849 1707 1462 1461 1227 1130 1140 1140 1002 1174 1078 1107 1001 1025 846 880 832 820 706 591 579 512 403 340 290 292 467 516 470 405 472 713 1033 1170 1192 1121 849 903 1031 1136 1113 1012 1006 966 939 915 1098 1142 1203 1192 1135 1063 993 1100 1106 1123 1082 1026 896 570 440 283 303 428 574 666 652 715 777 786 715 827 798 683 739
2504 2632 2491 2261 2277 2368 2144 2015 1982 1926 1876 1504 1382 1215 1324 1095 1090 1122 1139 1070 1146 1224 1046 940 930 864 832 885 821 733 525 447 387 339 323 489 774 492 433 456 589 633 811 1144 1292 1117 1147 1037 1123 1147 1247 1241 1059 919 679 775 935 1074 986 1040 1033 901 979 996 983 912 849 667 525 540 571 635 539 540 578 460 479 495 519 484 527 416 413 402 795
2556 2585 2371 2304 2284 2216 2274 2026 1857 1812 1504 1393 1390 1270 1305 1150 1285 1089 1199 1155 1170 952 1081 1005 970 1000 1013 923 902 726 650 581 537 534 461 607 747 590 424 492 642 704 828 870 1169 1112 1220 1185 1100 1164 1115 1090 794 575 871 1199 1288 1184 1172 1280 971 874 931 890 792 605 382 294 263 239 273 301 334 208 400 527 486 396 396 442 420 410 399 406 483
2574 2540 2379 2329 2189 2363 2253 2057 1954 1595 1582 1535 1549 1653 1404 1225 1133 1230 1077 1213 1302 1178 1106 1036 1040 986 992 878 794 770 770 683 610 524 499 487 689 837 647 531 734 794 808 876 840 1007 1046 1209 1071 1068 1091 810 570 842 1182 1312 1320 1418 1405 1456 931 918 850 707 544 446 272 55 49 52 160 180 212 301 416 474 411 354 352 417 380 911 964 1043 894
2535 2461 2388 2287 2186 2386 2274 2091 1941 1792 1693 1611 1622 1196 1460 1258 1115 1060 1114 1292 1306 1190 1090 1026 1042 989 919 888 882 856 845 778 716 689 676 651 599 571 877 820 1017 1026 995 1047 1048 1107 1055 1025 1086 975 881 552 908 1207 1133 1142 1250 1172 1433 1173 988 861 712 546 480 344 193 178 175 156 120 34 0 2 41 34 47 147 321 408 961 1028 1058 1144 958
2460 2366 2324 2174 2196 2431 2245 2117 2023 1816 1694 1852 1616 1786 1484 1192 1104 981 1221 1168 1159 1151 1072 977 1011 978 969 917 877 825 824 779 766 780 827 927 1072 1165 1205 1145 1123 1052 927 1032 994 1016 1117 1136 1127 911 590 789 1061 1185 1069 1003 1144 1104 1089 988 901 774 601 512 453 330 260 281 320 310 293 417 275 394 491 606 540 514 441 417 580 694 831 861 785
2369 2317 2190 2173 2339 2423 2256 2139 2052 1908 1921 1852 1720 1782 1615 1281 1403 1348 1193 1214 1188 1160 1087 1135 1103 1014 981 891 870 867 807 846 842 1037 1260 1231 1162 1095 1027 1183 1164 1174 1210 1217 1160 1188 1220 1299 1015 705 804 1016 1014 1103 1004 969 939 937 891 796 682 556 458 384 250 270 278 179 124 149 329 336 268 388 516 244 208 320 362 437 410 468 708 768 811
2370 2224 2192 2285 2577 2338 2307 2164 2094 2071 2099 2070 2093 1959 1620 1719 1674 1308 1189 1276 1365 1174 1152 1169 1186 1054 983 884 848 833 878 864 1134 1192 1211 1134 1134 1259 1520 1580 1572 1408 1249 1180 1144 1279 1392 1278 917 855 932 1024 1003 1085 935 928 820 770 747 705 568 467 416 296 212 78 93 119 129 48 22 342 396 341 456 302 611 678 679 674 611 648 699 706 681
2308 2294 2304 2378 2315 2424 2382 2206 2194 2225 2385 2205 2143 2108 2028 1936 1614 1353 1426 1619 1629 1348 1163 1143 1252 1337 1203 971 864 918 920 856 1054 1127 1216 1227 1461 1699 1678 1544 1386 1347 1385 1391 1447 1454 1456 1069 971 894 1063 993 1074 1180 884 823 797 739 698 600 500 457 383 220 7 19 12 5 24 11 30 196 409 441 418 463 510 546 541 486 688 536 406 382 544
2331 2380 2413 2314 2287 2438 2482 2368 2411 2490 2377 2348 2370 2235 2176 1940 1793 1602 1785 1872 1734 1674 1596 1556 1426 1431 1461 1302 1132 1099 1104 991 1041 1165 1163 1585 1726 1730 1503 1426 1472 1468 1490 1532 1563 1607 1389 1244 1332 1254 1117 1117 1119 1190 966 780 857 808 724 538 475 421 343 232 145 75 152 168 283 185 270 421 516 600 500 399 589 554 567 539 536 511 375 296 434
2311 2405 2432 2360 2335 2343 2500 2440 2462 2543 2462 2363 2351 2342 2252 2233 2209 2107 2130 1977 1844 1894 1751 1399 1526 1546 1480 1530 1481 1227 1059 975 1004 1226 1744 1882 1868 1792 1493 1452 1488 1508 1510 1497 1492 1310 1083 1136 1149 1256 1414 1433 1209 1199 1059 849 887 828 660 498 404 309 175 22 40 54 126 191 148 80 314 461 699 650 698 713 594 367 513 430 397 291 247 210 250
2324 2418 2404 2343 2290 2365 2380 2432 2533 2557 2476 2407 2362 2320 2317 2341 2282 2261 2303 2252 2052 1853 1823 1820 1699 1646 1661 1693 1474 1222 1026 1052 1218 1655 1987 1941 1956 1722 1578 1468 1475 1551 1573 1475 1347 1196 1264 1221 1290 1363 1419 1624 1452 1206 990 911 895 741 532 418 343 311 244 45 1 3 15 37 144 245 246 576 650 609 579 419 282 406 518 308 211 227 286 346 281
2487 2394 2381 2343 2296 2263 2344 2287 2376 2570 2544 2452 2373 2330 2353 2310 2286 2304 2283 2246 2100 1964 1936 1890 1937 1955 1881 1687 1543 1429 1374 1264 1539 2044 2058 2093 1910 1724 1580 1424 1499 1546 1492 1595 1361 1332 1178 1139 1251 1365 1499 1621 1521 1207 1000 938 784 616 531 430 380 339 250 57 0 6 73 239 134 63 170 374 382 311 205 327 334 342 258 237 250 239 226 151 115
2499 2385 2338 2347 2255 2231 2194 2076 2116 2094 2291 2454 2424 2412 2397 2357 2272 2285 2257 2247 2159 2120 2086 2080 2089 2132 1859 1702 1658 1586 1591 1722 1978 2083 2064 1989 1779 1601 1505 1490 1497 1555 1509 1614 1350 1304 1280 1259 1233 1280 1463 1594 1574 1120 1010 910 774 650 543 432 364 332 302 175 40 109 302 329 146 304 328 310 331 185 240 156 165 134 116 106 90 127 264 265 230
2256 2331 2358 2374 2300 2264 2112 1983 1964 2045 2139 2183 2196 2316 2373 2318 2256 2319 2256 1974 1994 2163 2235 2237 2210 2172 1955 1673 1476 1374 1530 1803 2017 2068 1996 1832 1612 1492 1459 1375 1432 1556 1474 1447 1474 1413 1425 1205 1106 1231 1441 1565 1494 1247 1156 951 796 664 522 405 366 380 357 107 12 190 138 100 129 254 484 614 515 406 360 315 298 402 380 374 282 264 159 100 85
2076 2062 2177 2354 2392 2316 2141 2058 2021 1965 2035 2094 2036 2023 2150 2222 2217 2162 2036 1912 1946 2176 2199 2247 2268 2116 1956 1861 1754 1700 1833 1955 2113 1995 1975 1818 1511 1312 1378 1386 1442 1530 1586 1415 1470 1517 1338 1198 1194 1131 1102 1155 1211 1106 951 832 739 583 488 427 424 287 8 1 132 145 178 358 265 329 694 526 252 172 241 240 212 184 136 91 140 199 186 139 120
1904 2023 2163 2293 2345 2309 2128 2018 2000 1983 2040 2003 1957 2032 2106 2159 1749 1994 2054 1950 2150 2204 2097 2245 2082 1681 1764 1854 1793 1817 1894 1794 1843 1799 1874 1668 1517 1438 1506 1484 1406 1478 1560 1515 1522 1490 1431 1485 1412 1326 1233 1169 1067 1040 960 889 775 645 574 457 298 10 4 77 129 188 164 187 218 313 328 208 254 286 294 227 204 111 103 105 93 44 25 34 36
1715 1876 2191 2341 2299 2235 2139 2043 1992 2014 2065 2017 1908 1940 1793 1784 1831 1713 1717 1614 1801 1876 1869 1770 1580 1583 1439 1600 1613 1653 1752 1754 1718 1712 1537 1770 1591 1504 1495 1548 1508 1480 1715 1583 1528 1538 1469 1474 1175 1222 1308 1337 1056 885 1031 985 878 698 484 253 103 8 6 105 118 104 62 87 228 360 262 263 261 161 143 139 125 92 69 39 35 60 78 62 56
1600 1730 1974 2257 2196 2141 2105 2093 2018 2019 2022 1809 1887 1920 1769 1832 1845 1535 1597 1596 1607 1720 1737 1487 1460 1457 1507 1551 1596 1565 1626 1640 1656 1590 1559 1600 1659 1532 1475 1495 1506 1530 1615 1647 1530 1655 1683 1457 1294 1074 945 758 701 722 691 723 711 604 350 260 219 95 9 20 71 22 37 160 161 248 213 222 205 160 135 137 104 98 90 35 37 28 42 61 52
1484 1607 1822 2003 2129 2124 2068 2021 1989 2004 1954 1924 1862 1821 1682 1724 1740 1580 1544 1594 1580 1680 1615 1580 1466 1454 1466 1526 1508 1521 1520 1589 1645 1869 1774 1567 1576 1531 1465 1502 1554 1497 1376 1592 1476 1520 1621 1447 1167 748 587 580 658 616 528 506 401 373 315 276 264 220 51 18 24 44 88 216 144 192 128 153 156 176 186 149 116 73 47 53 42 39 28 24 32
1444 1599 1700 1968 2134 2128 2058 1952 1898 1877 1900 1963 1885 1774 1677 1660 1601 1496 1493 1607 1578 1591 1553 1486 1479 1478 1479 1504 1462 1431 1461 1546 1615 1558 1474 1472 1466 1328 1271 1208 1144 1308 1290 1332 1308 1224 868 448 404 511 529 524 547 473 406 397 386 348 314 326 306 289 189 60 22 54 103 106 258 153 136 130 110 103 128 115 86 71 61 53 39 22 7 9 16
1376 1458 1625 1866 2100 2142 2062 1899 1770 1811 1870 1885 1928 1827 1781 1698 1544 1434 1405 1535 1525 1516 1452 1449 1481 1446 1438 1448 1420 1321 1375 1446 1468 1436 1412 1417 1336 1196 1155 1094 1065 1021 1026 938 926 832 575 431 454 467 484 467 434 405 379 375 357 325 329 337 328 271 225 127 49 93 81 109 292 165 180 154 140 167 157 100 71 64 64 55 26 18 27 18 4
1247 1355 1603 1768 1926 2130 2002 1910 1790 1780 1801 1845 1982 1763 1729 1668 1580 1540 1476 1418 1420 1383 1410 1429 1479 1443 1402 1375 1311 1184 1147 1232 1341 1331 1338 1328 1170 1072 1099 1027 931 863 784 532 414 559 596 448 548 488 479 453 432 425 394 396 389 383 341 330 317 288 241 183 138 122 34 135 425 251 201 109 158 174 95 96 85 56 36 31 10 5 9 5 4
1053 1227 1525 1703 1792 1911 1866 1883 1767 1757 1692 1800 1897 1699 1713 1620 1562 1550 1466 1390 1293 1332 1382 1391 1446 1390 1393 1294 1295 1103 1086 952 1126 1154 1234 1194 1105 1039 1081 999 939 755 582 346 27 149 310 334 630 695 637 529 471 445 439 404 399 475 399 346 322 313 268 256 199 106 114 118 232 217 101 140 284 138 44 52 48 37 37 43 19 8 6 19 11
983 1123 1426 1625 1722 1765 1814 1814 1691 1666 1519 1575 1650 1575 1629 1582 1476 1252 1477 1520 1283 1218 1212 1236 1402 1362 1285 1272 1250 1223 1124 933 917 957 1058 1135 1081 1080 994 945 828 549 348 121 5 57 0 39 389 900 898 817 669 585 580 595 504 531 507 460 406 343 302 250 187 111 26 48 98 199 150 183 258 92 68 74 40 23 21 66 32 36 24 9 0
987 1094 1307 1529 1681 1696 1752 1818 1610 1574 1435 1384 1490 1519 1542 1457 1325 1124 1443 1431 1261 1172 1077 1173 1262 1240 1211 1254 1242 1204 1105 935 913 792 847 959 997 1038 911 722 597 374 238 67 1 0 0 168 238 789 820 728 810 790 731 725 622 612 527 556 570 442 371 333 225 49 8 18 78 280 168 264 175 212 176 72 101 82 37 15 17 8 12 7 21
1005 1114 1226 1455 1536 1631 1665 1712 1634 1472 1363 1500 1412 1480 1459 1374 1359 1156 1367 1212 1236 1104 947 902 1154 1095 1149 1191 1148 1149 1087 985 869 774 734 838 894 951 805 665 422 324 274 105 0 0 0 0 72 645 721 578 588 718 884 818 715 582 583 640 676 603 502 362 206 16 19 16 40 127 209 75 74 172 662 214 132 27 38 63 28 13 14 27 27
1842 1094 1215 1351 1428 1550 1661 1598 1576 1458 1333 1394 1464 1355 1292 1229 1302 1203 1378 1151 1265 1119 1035 1025 1094 1113 1155 1143 1136 1110 1018 971 833 808 685 782 828 869 826 629 432 304 234 10 16 0 0 0 256 536 576 508 467 546 878 913 762 615 519 550 559 524 542 451 250 7 7 4 1 18 92 238 195 143 567 504 295 104 100 86 24 31 24 70 85
2261 1558 1196 1325 1423 1505 1544 1618 1539 1341 1335 1296 1348 1262 1236 1202 1204 1167 1276 1057 1102 1067 1004 993 1088 1170 1234 1120 1164 1092 943 952 937 880 737 727 855 863 858 686 519 383 306 0 0 0 4 101 358 401 356 348 314 413 760 882 845 598 463 448 468 492 466 335 142 4 3 0 0 7 66 254 450 280 153 117 296 108 103 53 60 119 176 141 148
2275 1876 1385 1262 1365 1440 1512 1439 1306 1300 1294 1247 1232 1201 1151 1159 1127 1016 1274 1098 1034 1140 1044 1003 961 1075 1252 1264 1204 1153 984 918 1005 1009 887 802 863 861 793 685 545 427 363 171 29 267 0 136 298 182 183 172 219 335 660 751 861 693 423 395 418 430 382 290 145 0 0 0 0 0 3 179 134 310 586 282 242 492 424 182 293 270 188 176 165
2229 1902 1496 1421 1406 1392 1375 1294 1280 1294 1179 1164 1159 1182 1168 1100 1028 934 1159 1204 1043 1064 1064 1021 1024 1106 1262 1344 1293 1220 1172 964 1006 1016 988 887 851 817 750 672 581 481 399 379 295 296 0 17 133 220 252 267 202 344 597 692 844 665 398 382 400 375 331 264 208 0 0 0 0 0 12 28 360 502 498 512 971 998 773 509 296 224 240 168 220
2327 1975 1794 1651 1556 1377 1327 1251 1240 1231 1143 1077 1032 1040 1060 920 907 991 1064 1229 1138 1052 1033 1052 1127 1236 1286 1338 1381 1297 1222 1142 1062 1055 1004 895 792 687 651 586 566 537 473 423 341 282 330 326 251 277 268 346 336 392 551 710 828 713 399 383 374 343 317 287 285 194 0 0 0 0 130 306 397 440 362 340 494 910 745 779 668 348 240 222 142
2369 1858 1774 1941 1932 1635 1256 1180 1126 1156 1129 1032 872 808 875 814 771 844 928 1091 1168 1120 1097 1118 1058 1235 1197 1099 1372 1346 1246 1218 1141 1112 1024 901 784 631 594 582 608 578 538 482 418 322 316 370 348 330 277 347 490 475 592 740 819 591 384 341 336 340 350 371 340 198 127 0 51 176 242 291 416 376 302 315 337 421 564 588 623 478 517 484 184
2020 1807 1728 1893 1978 1805 1504 1256 1145 1091 1085 999 719 555 611 732 650 685 849 934 1011 1118 1232 1185 1084 1141 1096 1040 1228 1266 1260 1223 1127 1085 1062 974 843 724 637 630 639 606 560 504 448 381 344 387 385 357 341 342 477 540 623 712 636 385 310 300 326 355 381 284 108 167 80 3 184 203 238 306 294 234 284 300 303 337 352 326 280 316 516 240 331
2139 1934 1811 1866 1949 1934 1766 1492 1366 1146 1076 974 799 861 642 508 495 453 586 766 831 1024 1128 1111 969 913 953 930 789 1092 1236 1156 1024 990 1025 1010 873 786 706 630 587 534 509 497 450 358 364 402 383 365 352 353 368 448 424 367 340 221 9 10 205 308 279 84 109 169 156 1 187 221 253 309 295 223 247 280 270 263 278 265 313 326 347 297 430
2155 2005 1913 1897 1872 1863 1792 1580 1429 1411 1162 934 805 787 784 637 362 342 430 457 650 927 1029 1062 958 835 902 704 686 928 1170 1131 986 924 960 901 744 634 618 558 565 530 525 529 478 457 456 419 378 358 338 348 335 350 317 187 78 18 36 42 88 121 19 40 2 1 119 16 194 209 241 254 257 204 176 202 129 82 45 57 170 242 263 440 408
2162 2093 2097 2171 1926 1811 1785 1676 1504 1461 1390 1213 987 880 804 745 484 336 511 497 553 897 977 1058 1019 820 777 764 931 916 1084 1147 1020 980 914 783 686 626 593 600 613 567 597 547 516 542 500 452 425 400 400 378 350 336 344 319 145 22 72 114 120 116 184 182 75 53 39 77 112 82 129 134 178 166 181 94 9 0 7 19 66 144 264 239 372
2141 2216 2365 2371 1959 1780 1796 1741 1667 1579 1494 1351 1181 1052 944 846 514 374 371 500 547 678 781 949 965 949 904 920 947 1081 1106 1050 1078 1035 965 701 629 641 603 625 672 656 667 571 543 536 506 510 499 501 484 474 373 276 281 246 16 54 112 188 178 140 179 173 153 225 119 101 62 18 105 16 120 89 97 55 0 0 0 4 81 144 198 228 273
2536 2556 2522 2311 1892 1825 1823 1797 1739 1661 1551 1355 1185 1124 1057 917 527 425 477 442 473 457 674 813 914 974 1052 1010 992 1012 1080 900 933 1030 1041 711 559 584 628 635 737 790 713 623 565 556 604 625 618 582 539 424 338 258 211 201 80 58 100 95 88 92 40 57 39 19 46 133 105 59 0 18 42 53 40 39 29 1 1 41 70 71 143 205 233
2619 2595 2417 2118 1880 1808 1829 1826 1753 1662 1573 1442 1199 1041 1045 1018 683 505 484 499 697 865 807 794 870 930 1038 988 971 1057 1042 845 744 805 928 808 518 514 620 634 775 835 823 740 690 688 678 532 656 611 472 368 295 264 203 205 200 141 13 30 69 75 2 7 53 26 26 37 68 24 56 70 18 32 20 51 28 4 21 56 16 26 100 172 184
2682 2430 2221 1973 1836 1809 1831 1854 1758 1660 1597 1424 1072 802 869 973 884 638 576 637 881 950 932 911 839 920 1045 1051 1079 1136 979 866 718 587 572 601 457 388 596 644 769 818 818 779 732 695 750 792 700 534 472 400 300 259 184 178 161 29 0 0 3 8 6 34 32 4 26 17 10 10 26 14 36 35 25 52 43 7 6 23 13 18 100 135 152
2133 1831 1874 1682 1632 1695 1889 1931 1853 1733 1608 1310 900 776 974 1028 1001 800 739 722 817 961 988 1024 1036 995 1028 1027 1104 1104 971 891 762 643 590 460 375 166 546 699 770 840 836 830 747 667 772 797 692 539 456 430 372 244 88 105 114 4 0 0 0 0 0 28 1 0 2 21 26 8 14 36 31 35 63 89 41 9 20 27 7 12 68 130 131
1341 1359 1268 974 764 802 1137 1593 1709 1690 1530 1286 1054 874 1008 1094 1027 912 831 892 924 929 944 959 1014 1054 1006 949 912 1044 938 817 733 639 609 528 368 148 398 608 777 792 779 792 808 754 766 772 659 568 483 424 372 335 218 113 56 41 0 0 0 0 0 1 0 0 4 11 39 24 42 33 29 36 62 43 43 7 7 33 2 14 20 69 105
1432 1311 1060 638 428 658 920 1044 1423 1616 1582 1358 1150 1032 1019 1066 984 910 889 949 946 931 897 891 882 976 963 938 813 932 896 814 735 639 644 593 340 344 302 457 620 725 845 916 944 809 783 742 644 523 478 437 394 361 266 76 12 2 42 0 0 0 0 0 0 0 0 1 1 32 48 80 37 35 44 34 23 7 0 19 3 4 24 5 0
1558 1606 1341 506 434 522 639 881 1238 1447 1506 1390 1096 1029 1011 968 968 913 994 995 1027 1063 1017 869 806 873 893 872 732 854 834 762 699 712 694 654 610 470 358 436 530 620 711 944 993 903 870 860 713 516 526 515 474 402 218 90 15 1 0 0 0 0 0 0 0 0 0 2 4 8 6 28 31 52 34 55 21 13 0 0 0 6 0 0 0
1618 1667 1211 794 501 634 682 878 962 1083 1235 1354 1295 1126 1073 1073 1026 989 938 1004 1032 1026 965 930 838 826 786 861 779 765 779 712 738 762 711 641 608 537 419 511 598 617 587 671 802 878 949 954 782 597 579 565 542 508 386 201 15 0 0 0 0 0 0 0 0 0 0 0 0 8 5 8 10 17 26 25 21 8 0 0 0 10 0 0 0
1850 1684 913 499 605 627 777 839 886 1058 1114 1158 1257 1346 1072 960 1002 1067 974 948 1002 1070 1058 978 923 861 820 884 901 840 795 791 782 783 758 669 630 502 483 534 601 553 404 438 606 811 931 933 782 615 519 550 569 494 378 301 254 0 0 0 0 0 0 0 0 0 0 0 0 4 10 21 6 10 21 63 17 2 6 7 2 41 0 0 0
Wind_Speed
25 29 28 32 33 35 37 39 38 39 38 37 36 36 37 37 37 36 36 36 35 34 35 36 37 38 39 41 41 41 39 38 37 35 33 32 31 27 25 24 24 24 23 23 22 21 21 21 21 22 24 24 25 25 24 22 21 22 20 20 19 19 17 18 17 18 20 19 17 16 14 15 18 20 20 19 19 18 17 16 13 10 8 12 17
28 28 27 30 35 36 38 40 39 39 39 38 37 36 36 37 37 37 37 36 35 36 36 36 37 38 40 41 41 40 39 38 37 35 34 33 31 28 26 24 24 24 23 22 22 21 21 21 22 23 24 25 25 26 25 22 22 22 20 20 19 17 17 18 18 18 19 17 17 18 18 18 19 20 20 20 19 18 17 17 15 9 8 16 17
28 28 28 32 38 37 38 40 39 39 39 38 38 37 36 36 37 36 36 36 34 35 35 36 36 38 39 40 42 40 39 39 38 37 36 32 29 26 25 25 24 24 23 22 22 22 23 23 24 25 25 26 26 25 25 23 21 19 19 20 18 18 16 16 16 16 17 17 18 17 18 20 21 20 20 20 20 19 18 17 16 15 12 17 14
32 28 29 33 38 38 38 39 40 40 40 39 38 38 37 36 36 35 35 34 34 34 35 35 36 36 38 40 41 40 40 39 39 39 37 34 31 27 25 24 24 23 24 23 22 21 22 23 24 25 26 26 25 24 24 23 22 21 20 20 20 19 18 17 17 17 17 16 14 11 6 8 14 19 19 20 20 20 18 18 19 18 18 16 15
31 29 29 30 32 35 38 38 38 40 40 40 39 38 37 36 35 34 34 33 33 33 34 35 36 36 37 40 41 41 40 40 39 39 38 35 32 29 26 26 25 24 24 23 21 21 21 23 24 26 27 25 24 24 23 21 20 19 19 20 20 20 19 18 17 17 16 15 13 8 5 6 7 16 18 19 19 18 18 18 18 18 17 16 16
29 29 29 30 30 33 38 37 39 40 40 39 38 38 37 37 36 34 33 33 33 33 34 35 35 36 38 40 41 41 42 41 40 39 37 35 30 29 27 26 25 24 24 23 21 21 22 23 24 25 25 23 21 20 18 18 17 15 16 17 18 19 19 18 17 17 15 13 10 5 6 7 9 11 19 19 19 18 17 18 17 16 16 17 17
30 27 28 29 28 31 36 36 38 39 39 39 39 37 36 36 35 33 33 33 32 33 33 34 34 35 37 39 41 41 41 42 42 40 38 34 31 28 28 26 25 24 22 22 21 21 22 23 24 25 24 23 20 19 18 17 15 13 14 15 17 18 18 18 17 16 14 8 5 5 5 6 6 7 18 18 19 19 19 18 17 17 17 17 16
27 25 26 26 26 31 34 35 37 37 38 38 37 36 35 35 34 32 32 32 31 32 33 33 33 35 37 39 41 42 42 43 42 41 37 34 30 28 27 26 26 25 23 21 21 21 22 22 24 24 23 21 20 19 18 17 16 14 16 18 18 17 17 17 16 15 14 nan nan nan 6 7 8 9 17 19 20 20 20 19 18 19 19 18 17
27 26 26 25 26 33 32 32 33 36 36 36 36 36 35 33 33 31 30 31 32 32 32 33 33 35 37 38 40 42 42 43 42 41 39 36 33 28 23 22 22 21 20 19 19 19 21 23 23 23 22 21 20 19 19 19 18 19 22 20 18 17 16 15 15 14 9 7 7 7 8 nan nan nan nan nan nan 20 19 17 19 21 22 20 19
27 25 25 23 25 31 30 30 32 34 35 35 35 35 33 32 31 30 30 31 31 31 31 33 34 34 36 38 39 41 42 42 41 40 38 35 33 30 26 23 23 23 21 20 20 21 21 22 23 22 22 21 20 20 20 20 20 22 21 19 17 16 16 15 14 11 8 8 9 10 9 9 6 10 19 21 21 21 20 20 18 19 19 21 21
27 25 24 24 27 29 29 29 31 32 34 33 34 34 33 31 31 30 29 30 30 31 31 32 32 34 36 37 38 40 41 41 41 40 37 34 32 29 26 24 23 21 20 20 20 20 21 21 21 22 21 21 20 20 20 21 20 21 20 18 17 16 15 14 11 7 8 9 9 8 9 10 7 11 20 22 22 22 23 21 21 21 22 23 22
27 25 24 24 30 30 29 29 30 30 32 33 33 33 33 31 30 29 29 29 31 31 31 32 31 34 36 37 38 40 40 40 41 39 36 33 30 27 24 23 23 21 20 20 20 20 20 21 22 21 21 20 20 20 21 21 20 20 20 18 17 16 15 14 8 nan nan 8 8 nan nan 8 11 17 22 22 24 23 23 22 23 23 23 23 24
28 26 25 24 25 28 28 28 29 30 31 32 32 32 32 30 30 29 28 27 29 30 32 32 31 32 35 38 40 40 40 40 39 37 34 32 29 26 22 22 22 20 19 20 20 20 21 22 22 22 21 20 19 20 21 20 19 20 19 18 17 16 15 13 nan nan nan nan nan nan nan 7 12 21 22 22 22 23 23 23 23 23 23 23 23
29 27 25 25 24 30 28 29 28 28 30 29 29 29 29 27 28 28 27 27 29 30 31 31 31 33 35 38 40 39 39 40 38 36 34 32 29 24 19 20 21 20 19 20 20 21 21 22 22 22 21 19 20 20 19 19 19 20 19 17 16 15 14 9 7 nan 6 6 7 7 8 10 12 20 21 23 22 23 23 23 23 23 23 22 22
29 29 27 26 25 26 32 30 28 28 27 27 26 26 26 26 26 26 27 29 30 30 32 34 33 34 37 39 40 40 40 40 38 36 34 32 29 23 18 19 20 20 20 20 21 21 21 22 22 21 19 18 19 18 19 19 20 20 19 16 15 13 12 nan nan nan 6 6 6 nan 7 9 16 19 22 23 23 22 22 22 22 24 23 22 22
27 28 28 27 26 26 26 30 29 27 27 26 25 25 25 25 25 26 26 28 29 30 31 31 33 34 37 38 40 40 41 40 38 35 33 31 27 23 19 18 19 20 21 21 21 20 21 21 21 20 19 18 19 20 20 20 21 21 19 16 15 14 12 nan nan nan nan nan 7 7 8 11 19 20 21 22 22 22 22 22 22 22 22 22 22
29 28 29 28 26 25 25 24 25 29 26 24 23 23 24 24 25 25 26 28 29 30 30 31 32 34 37 39 39 39 39 39 36 34 33 30 25 22 19 17 18 21 22 21 21 20 20 20 21 20 18 18 19 20 21 21 21 21 19 16 15 14 13 nan nan nan nan 8 7 nan 8 9 16 17 19 20 21 21 22 21 22 22 22 22 21
30 30 30 29 27 26 25 23 23 22 20 22 22 23 24 24 24 25 26 27 28 28 28 30 32 35 38 39 39 38 38 38 37 33 32 29 24 21 19 18 19 21 22 21 20 20 19 20 21 21 19 19 21 22 21 21 20 20 18 15 15 14 14 12 nan 7 8 8 9 9 9 11 14 18 20 19 20 20 20 21 nan 22 22 22 22
32 33 31 30 29 27 25 24 22 20 19 18 17 21 25 25 25 25 26 26 27 28 29 31 34 36 39 40 39 39 38 38 36 33 31 27 23 21 20 19 20 21 22 21 21 21 18 20 23 22 20 20 22 22 21 21 19 19 18 15 15 15 15 10 nan 8 8 8 9 10 10 14 16 19 20 20 21 21 22 22 22 22 21 nan nan
33 34 33 31 30 28 27 25 23 21 19 18 19 19 23 24 25 25 26 27 29 29 30 31 35 37 40 40 39 35 35 33 35 31 30 26 23 19 21 20 20 21 22 20 21 21 20 21 24 24 22 21 22 22 21 20 19 19 19 16 15 15 nan nan 9 9 9 9 9 9 12 15 17 19 21 21 21 22 21 nan 22 23 22 22 21
34 36 35 32 32 31 30 27 24 22 21 21 20 20 20 22 22 25 26 28 28 31 30 32 33 34 36 35 34 31 30 28 27 23 27 21 20 21 21 21 21 21 21 21 20 21 20 21 25 25 23 21 22 23 21 20 19 19 19 17 16 nan nan nan 9 9 10 10 10 7 15 17 19 21 21 22 23 23 23 22 nan nan nan nan nan
32 34 36 35 33 31 29 27 25 25 23 22 21 20 20 22 20 21 22 25 27 29 29 27 30 28 33 31 29 30 29 26 23 24 19 19 19 20 21 21 21 21 20 21 21 20 20 22 26 25 22 20 22 16 16 19 20 19 19 18 13 nan nan 12 12 11 nan nan 12 15 19 18 19 19 21 21 22 nan nan nan nan nan nan nan nan
31 32 33 33 30 27 26 27 27 26 24 23 21 22 23 23 23 23 25 26 27 28 27 27 27 28 29 28 28 28 28 24 22 21 18 20 18 20 21 21 21 22 21 21 21 21 19 22 24 25 23 21 17 15 14 14 14 19 18 13 11 nan nan nan nan nan nan 12 13 18 19 19 19 20 21 21 21 nan nan nan nan nan nan nan nan
30 29 31 30 29 27 27 27 27 26 23 22 22 23 24 24 25 25 27 27 28 29 29 27 28 28 28 27 27 27 26 22 23 25 21 16 17 19 20 20 21 22 22 19 22 20 21 21 21 24 20 16 17 16 14 13 13 13 13 12 11 12 nan nan nan nan nan 14 13 20 20 19 20 21 21 21 21 nan nan nan nan nan nan nan nan
29 29 31 32 31 32 29 28 28 25 24 22 23 24 25 25 27 28 28 28 30 31 30 29 28 28 28 27 26 25 24 21 20 19 18 17 16 16 16 16 17 18 19 18 17 16 14 13 14 17 16 18 19 16 15 14 13 13 14 13 12 11 13 nan nan nan 14 15 16 19 19 19 20 19 20 21 nan nan nan nan nan nan nan nan nan
29 27 29 30 29 31 31 29 29 26 23 24 24 26 27 27 29 30 30 30 31 31 29 28 28 30 29 26 25 25 23 20 21 20 18 17 16 16 17 16 18 19 18 17 17 16 14 12 13 15 15 17 18 17 15 14 13 14 14 13 12 11 11 13 nan nan nan 15 16 20 19 18 18 19 20 21 nan nan nan nan nan nan nan nan nan
28 23 24 26 28 28 31 31 30 28 27 29 29 30 28 29 30 31 32 31 31 31 28 27 28 30 29 26 25 23 21 20 21 20 18 17 16 15 15 16 18 19 18 17 16 16 14 12 12 13 15 17 18 17 16 15 14 14 14 13 12 11 11 11 12 12 nan 12 13 21 20 19 17 20 nan nan nan nan nan nan nan nan nan nan nan
29 24 22 24 25 26 28 29 29 30 30 32 31 30 30 30 31 31 32 32 33 31 28 26 27 30 30 27 24 22 21 20 20 20 18 17 16 14 14 16 16 16 17 15 nan 16 15 13 11 12 14 16 17 17 16 15 15 14 14 13 12 12 11 10 11 11 12 13 15 19 21 19 18 18 nan nan nan nan nan nan nan nan nan nan nan
28 24 22 23 23 23 24 25 26 28 30 31 30 28 29 29 30 31 32 34 34 31 28 27 28 29 29 27 24 22 22 21 21 20 19 17 16 14 13 14 14 13 15 15 nan nan nan nan 11 11 13 15 17 17 16 16 16 14 13 13 13 12 11 10 10 11 nan nan nan 14 16 18 17 nan nan nan nan nan nan nan nan nan nan nan nan
26 24 23 20 21 22 22 22 24 26 28 30 28 28 29 29 29 30 31 35 33 30 28 26 26 29 27 26 24 22 23 22 21 20 19 17 15 14 13 13 13 11 13 nan nan nan nan 14 12 11 12 15 18 17 16 16 15 14 13 14 13 12 11 11 10 nan nan nan nan 12 16 16 16 16 18 nan 20 nan nan nan nan nan nan nan nan
27 23 20 18 18 20 21 20 21 22 24 27 28 27 29 29 29 29 30 32 32 29 26 25 26 26 26 26 24 23 24 23 21 20 17 15 14 15 13 14 13 11 11 13 nan nan nan nan nan 12 11 14 18 18 16 16 15 14 14 14 13 12 11 11 10 nan nan nan nan 13 14 nan nan 17 17 16 18 nan nan nan nan nan nan nan nan
25 22 19 17 19 18 19 19 19 20 23 26 27 27 29 30 28 28 29 31 30 27 25 24 25 25 24 24 24 24 24 23 22 20 16 14 14 14 15 14 11 11 11 nan nan nan nan nan 15 14 13 14 18 19 16 16 15 14 14 13 12 12 11 11 11 nan nan nan nan nan nan 13 16 18 18 16 16 19 18 nan nan nan nan nan nan
22 23 23 22 21 19 18 18 20 22 26 27 27 31 34 33 29 29 31 31 28 25 24 25 25 23 23 24 24 24 22 22 21 18 15 14 14 14 15 14 13 12 13 nan nan nan nan 16 17 16 15 15 17 18 16 15 15 14 14 12 12 12 11 11 11 nan nan nan nan nan nan 13 14 17 18 19 18 18 18 nan nan 16 16 17 17
25 26 28 24 19 19 19 21 22 24 26 25 26 29 32 31 29 30 32 34 31 26 24 26 26 24 24 24 24 23 22 21 20 17 16 15 15 14 15 16 15 15 17 17 nan 15 nan 17 17 17 16 16 16 15 15 15 15 14 14 13 13 12 12 12 11 nan nan nan nan nan nan 13 13 13 14 17 17 16 16 15 15 15 15 14 13
26 28 29 20 18 19 20 22 24 23 23 24 27 29 28 27 26 27 30 33 31 26 26 28 26 25 25 23 23 22 21 20 18 17 16 16 15 14 15 15 17 18 18 18 17 16 nan nan 17 18 17 17 16 14 14 14 14 15 14 14 14 12 12 12 12 nan nan nan nan nan nan nan 14 14 15 14 15 16 13 13 14 13 12 10 9
27 28 27 22 22 21 20 21 23 23 20 19 20 25 27 26 25 27 30 29 26 25 28 25 26 28 26 23 22 21 19 18 17 16 15 14 15 14 14 17 17 18 18 16 16 15 16 17 16 17 19 17 16 15 14 14 14 15 15 14 13 12 12 11 12 12 nan nan nan nan 13 14 15 15 15 13 12 12 14 13 13 10 9 7 7
27 27 28 24 23 22 21 22 24 23 22 22 20 17 16 20 25 30 32 29 25 25 26 24 26 26 24 22 21 20 18 16 15 15 15 15 15 14 15 16 17 17 16 14 14 15 16 17 17 15 16 16 16 16 15 14 15 15 15 14 12 11 11 11 11 12 12 nan nan 13 13 14 16 16 13 12 11 10 10 11 10 11 11 8 7
25 26 26 26 24 23 21 22 24 26 24 23 22 22 23 20 20 27 28 25 23 23 23 24 23 23 21 21 21 19 17 15 16 16 15 15 15 14 16 16 17 17 16 15 13 14 16 17 18 16 16 16 15 15 15 15 16 16 16 13 11 11 13 12 13 12 nan nan 13 12 12 13 14 13 12 11 11 10 8 9 10 11 10 10 11
24 25 26 24 22 21 22 23 24 26 25 23 19 18 22 24 22 23 22 20 21 21 22 23 21 20 20 23 21 15 14 15 15 15 14 14 16 16 16 17 19 17 17 16 15 15 16 16 17 16 16 16 16 14 15 16 17 18 nan nan 12 12 13 nan 13 12 12 nan 13 12 11 12 13 12 11 11 10 9 8 7 7 7 7 8 9
25 25 26 25 23 21 23 23 23 25 27 25 21 18 20 20 23 22 19 17 17 19 20 19 20 19 20 22 20 13 11 14 14 14 14 15 17 17 16 17 19 18 17 17 16 15 16 17 16 18 18 18 17 15 15 17 nan nan nan nan nan 13 nan nan nan nan 12 nan 12 12 11 10 11 10 9 10 9 nan nan nan 7 6 6 8 9
27 26 27 27 26 25 24 24 24 25 26 24 18 15 16 15 15 18 17 16 16 17 17 18 18 17 18 19 18 15 13 15 16 16 14 15 17 17 16 17 19 18 17 17 17 16 17 17 17 17 20 18 16 14 15 18 20 nan nan 16 14 13 13 14 nan nan nan nan 13 nan 12 11 10 10 9 nan nan nan nan nan nan 5 5 6 7
28 27 27 29 28 26 25 23 25 24 24 23 19 14 13 13 15 18 17 17 17 15 15 18 17 15 16 17 17 16 14 16 17 15 14 15 17 16 15 17 19 17 18 20 19 19 20 20 20 19 17 17 16 14 15 18 nan nan 17 16 16 15 15 15 14 13 13 13 nan nan 12 nan 10 nan nan nan nan nan nan nan nan 6 6 6 6
31 28 27 28 28 27 24 22 22 22 20 21 20 16 16 17 18 18 17 14 12 11 12 16 17 16 15 16 17 17 15 16 17 16 14 13 15 16 15 17 18 18 19 20 20 18 18 19 19 19 18 17 17 15 15 14 nan nan 18 nan nan nan nan nan nan nan nan 13 13 nan nan nan nan nan nan nan nan nan nan nan nan nan 5 5 5
28 27 28 28 27 25 23 20 18 19 17 17 17 17 19 21 18 16 16 13 10 11 10 15 17 17 16 18 19 20 19 19 18 16 13 14 15 16 17 17 18 18 18 20 19 17 18 17 19 20 19 18 15 14 12 14 16 19 nan nan nan nan nan nan nan nan nan nan nan nan nan nan nan nan nan nan nan nan nan nan nan nan 6 5 6
27 27 28 27 23 20 17 14 15 18 18 16 15 15 17 21 20 16 18 18 15 13 12 13 16 17 19 21 21 22 21 20 20 17 15 15 16 18 18 17 17 18 19 20 18 16 17 18 19 21 16 17 16 15 13 15 13 nan nan nan nan nan nan nan nan nan nan nan nan nan nan nan nan nan nan nan nan nan nan nan nan nan nan 7 7
24 25 25 24 23 21 20 18 19 21 20 18 16 15 14 16 19 15 16 18 17 16 15 14 16 17 19 22 22 23 22 21 21 19 17 19 19 19 19 17 17 18 19 19 19 19 18 19 19 19 16 15 18 17 nan 15 12 nan nan nan nan nan nan nan nan nan nan nan nan nan nan nan nan nan nan nan nan nan nan nan nan nan nan 10 9
26 30 32 31 30 26 25 23 19 17 17 16 17 15 14 14 13 13 14 15 15 15 15 14 14 18 21 20 20 21 21 21 21 22 21 21 21 21 20 17 18 19 19 20 19 18 18 18 20 18 15 18 19 19 16 15 nan nan nan nan nan nan nan nan nan nan nan nan nan nan nan nan nan nan nan nan nan nan nan nan nan nan nan nan 11
25 28 29 33 35 31 24 14 6 8 11 12 13 13 13 15 16 16 17 18 16 15 16 16 17 18 19 19 19 19 20 21 22 22 22 23 23 23 22 20 19 20 19 18 18 19 20 19 18 19 17 18 19 19 17 nan nan nan nan nan nan nan nan nan nan nan nan nan nan nan nan nan nan nan nan nan nan nan nan nan nan nan nan nan nan
26 23 21 25 33 32 22 12 14 12 12 12 11 11 12 14 15 17 17 18 20 20 19 18 17 18 18 18 17 17 19 21 22 21 22 24 24 25 24 22 21 20 19 19 19 20 20 19 20 19 18 19 20 20 18 nan nan nan nan nan nan nan nan nan nan nan nan nan nan nan nan nan nan nan nan nan nan nan nan nan nan nan nan nan nan
25 24 22 23 30 33 27 19 18 14 12 15 14 14 13 14 14 14 16 17 20 23 23 20 18 17 17 17 17 18 21 23 23 22 24 24 25 26 25 23 22 21 19 20 20 20 20 19 18 17 18 20 20 19 17 17 nan nan nan nan nan nan nan nan nan nan nan nan nan nan nan nan nan nan nan nan nan nan nan nan nan nan nan nan nan
26 25 24 24 30 35 34 29 22 14 14 18 17 16 16 16 15 15 17 19 21 24 24 23 21 19 17 18 19 22 25 24 25 22 24 25 25 25 26 24 23 21 19 20 21 21 20 20 21 23 19 19 20 18 19 17 16 nan nan nan nan nan nan nan nan nan nan nan nan nan nan nan nan nan nan nan nan nan nan nan nan nan nan nan nan
Wind_Direction
310 306 305 306 306 305 304 303 303 300 299 299 300 300 301 301 302 303 304 305 307 309 311 313 314 316 317 319 318 318 318 318 319 321 321 318 317 319 322 322 321 318 315 310 306 302 299 297 293 292 290 290 289 286 281 283 284 287 287 287 285 286 292 294 286 284 283 284 289 288 282 277 275 271 267 264 262 259 257 255 254 255 258 255 253
306 301 300 302 303 303 302 302 302 299 299 300 300 301 301 301 302 303 305 306 308 310 312 314 315 317 318 318 318 318 318 319 319 318 317 321 322 322 323 321 320 316 311 307 302 296 295 293 290 288 290 286 285 283 286 285 286 286 287 286 287 285 286 286 287 289 291 293 293 293 285 277 273 268 265 262 258 256 256 258 257 259 255 252 252
295 298 298 302 303 301 301 302 302 301 300 301 301 301 301 301 302 303 305 306 308 310 312 314 315 317 318 318 317 318 319 319 318 318 320 321 319 321 323 323 322 313 310 305 301 299 296 292 287 291 290 290 289 288 289 291 290 289 291 292 293 293 289 283 282 281 282 284 285 282 275 269 265 265 264 262 258 254 253 254 259 259 258 255 256
300 296 298 301 300 300 301 302 302 301 300 301 301 301 302 302 302 304 304 306 308 310 312 313 314 316 318 318 317 318 319 319 319 320 321 321 323 322 321 321 320 315 309 305 300 295 292 288 288 287 287 287 286 286 288 290 291 290 288 288 288 288 286 282 281 280 276 275 273 270 271 258 264 263 260 255 252 251 252 254 257 261 262 260 260
299 298 297 296 298 300 301 302 301 301 300 300 301 302 302 302 302 303 304 304 307 309 310 312 314 316 317 316 317 318 320 319 320 319 320 321 322 323 324 322 320 318 309 304 300 293 290 288 285 286 285 284 284 285 286 287 288 288 286 286 286 286 283 280 276 274 272 268 265 269 269 264 268 263 260 258 257 254 252 252 253 255 261 262 265
298 298 296 295 296 298 300 301 301 300 300 300 301 302 301 301 302 302 303 304 306 308 310 312 314 316 317 317 318 318 319 320 320 320 321 323 325 321 320 320 320 318 310 304 299 294 290 288 286 284 282 279 282 281 275 277 288 295 296 290 284 284 280 278 275 273 270 266 265 277 267 262 261 256 260 262 261 259 258 258 259 259 261 263 261
298 295 294 294 294 296 299 300 301 300 300 300 301 301 301 300 299 301 302 304 306 307 309 311 314 316 316 315 315 318 320 320 321 321 322 323 321 320 320 321 318 316 311 305 296 296 293 289 286 283 282 280 275 272 274 277 284 302 314 303 291 286 282 281 279 275 269 270 279 277 265 253 249 260 264 262 261 258 257 257 258 265 267 267 268
296 295 295 294 293 296 298 299 299 299 299 300 300 300 299 298 298 298 301 303 304 306 308 310 313 314 314 314 315 318 320 320 320 318 318 318 317 319 322 320 320 316 309 302 302 297 291 285 285 284 281 278 275 274 277 281 284 296 313 309 299 291 286 283 279 273 268 nan nan nan 265 253 250 257 259 258 259 259 261 262 263 258 260 262 261
300 299 298 297 296 299 298 298 298 299 298 299 299 299 296 297 296 297 300 301 304 305 307 309 311 312 312 313 315 318 320 319 319 318 318 318 316 315 314 313 309 306 301 299 299 297 292 291 290 288 284 279 277 276 282 285 286 293 302 304 298 290 284 281 277 273 275 275 271 270 268 nan nan nan nan nan nan 262 254 250 249 256 260 261 263
302 300 300 298 299 301 299 298 299 298 298 298 297 294 295 294 295 296 297 300 302 303 304 307 309 310 310 312 315 317 317 317 317 316 314 313 312 313 315 314 313 311 309 306 304 301 296 293 291 287 284 280 278 280 285 288 292 298 300 296 290 285 282 280 275 274 278 270 266 270 277 279 263 263 269 270 268 267 265 264 265 262 259 260 260
301 299 299 299 301 300 299 299 298 297 297 295 294 295 293 293 292 294 296 299 300 301 302 305 307 309 309 311 314 316 315 316 316 313 310 311 311 313 317 314 312 312 308 305 305 302 296 289 286 285 283 281 282 286 290 291 294 297 294 289 284 282 279 275 269 277 274 270 263 261 266 268 283 275 268 265 267 264 263 259 258 256 256 256 256
300 299 299 300 302 299 299 297 296 295 294 292 293 293 292 291 292 293 295 298 301 300 301 304 306 307 309 311 315 314 313 314 312 311 311 311 311 312 316 314 313 310 308 306 305 301 292 285 284 284 282 283 287 290 293 294 296 295 291 285 282 281 277 272 267 nan nan 260 259 nan nan 258 264 272 273 273 269 267 265 263 261 259 259 259 257
299 300 300 300 298 300 296 294 293 292 291 291 292 291 290 291 291 293 295 297 299 299 301 303 305 307 310 312 314 314 312 312 311 311 311 311 310 312 313 311 313 312 307 306 303 297 288 285 284 283 282 284 290 291 292 294 295 296 293 285 280 279 278 272 nan nan nan nan nan nan nan 259 276 274 275 273 270 269 266 265 263 260 259 261 260
301 301 301 299 298 300 292 290 288 288 288 288 289 288 289 290 291 293 295 297 300 299 299 302 305 308 310 312 313 312 309 310 312 313 312 310 308 308 310 309 312 310 305 302 300 293 287 284 283 284 284 288 294 294 294 296 295 299 297 287 280 279 276 271 265 nan 258 257 255 262 268 271 276 279 278 277 274 271 269 266 262 262 261 261 258
302 304 301 299 297 293 293 287 286 284 284 285 284 285 288 288 289 292 296 299 299 298 301 305 306 308 309 309 308 307 308 310 313 312 310 308 305 305 307 307 311 308 303 300 297 292 286 282 283 286 289 294 301 301 298 298 299 300 301 292 281 273 268 nan nan nan 263 253 247 nan 269 283 276 273 274 272 270 269 267 269 270 267 266 264 261
297 299 299 298 295 293 289 291 289 285 284 285 284 285 285 286 289 293 294 295 296 297 301 304 307 307 306 305 305 308 309 311 312 310 307 304 303 305 306 307 310 308 303 300 296 291 284 283 284 286 290 298 307 305 301 301 302 304 305 295 280 272 270 nan nan nan nan nan 246 250 258 272 277 279 276 274 275 278 276 273 270 268 266 262 260
297 298 298 296 293 287 286 282 285 288 282 281 283 283 282 283 287 289 289 289 292 297 300 302 303 302 301 302 304 306 308 310 310 308 303 302 302 305 305 306 308 307 304 300 297 290 285 283 284 284 287 295 305 304 301 300 301 303 305 296 280 272 272 nan nan nan nan 240 233 nan 246 252 271 271 273 275 276 277 274 272 270 272 271 268 265
295 297 296 293 288 284 280 276 278 274 271 277 281 281 280 281 281 281 283 286 290 294 296 297 297 299 301 301 303 304 305 307 309 305 302 300 300 303 303 304 305 305 304 302 298 290 284 283 283 283 283 288 297 300 297 296 296 298 301 294 279 273 274 268 nan 259 254 251 247 246 251 263 268 270 272 276 277 275 276 276 nan 272 271 270 268
293 294 291 290 287 283 276 270 267 266 264 260 263 276 281 278 278 280 282 287 289 293 294 294 297 299 301 302 304 304 305 307 308 305 301 300 301 302 303 303 304 306 305 303 298 291 283 282 282 281 281 285 295 297 295 295 294 293 296 293 280 274 269 266 nan 260 256 255 255 258 261 264 266 273 274 270 271 273 274 276 275 270 267 nan nan
295 295 292 290 289 286 280 274 267 262 256 254 257 261 276 282 282 281 288 292 295 291 292 295 299 301 303 303 303 303 304 305 308 304 302 299 300 300 302 302 305 306 306 303 297 292 286 282 280 279 283 286 289 290 289 290 290 290 293 294 282 268 nan nan 274 270 268 266 262 257 280 284 278 273 271 272 271 270 269 nan 269 267 268 268 267
299 299 296 293 290 288 283 278 271 264 256 252 251 257 270 280 279 286 290 293 289 291 291 295 297 299 299 299 298 294 295 298 299 298 298 292 296 300 301 304 304 306 304 302 295 290 288 283 280 282 287 291 290 287 286 287 290 289 291 290 276 nan nan nan 276 273 271 272 271 287 273 265 267 270 272 272 273 274 272 271 nan nan nan nan nan
304 305 302 294 288 284 282 276 267 260 252 247 248 254 263 270 265 272 277 283 288 288 287 287 291 286 293 291 290 292 292 293 293 294 285 288 292 300 301 301 305 305 303 300 293 289 288 283 283 284 288 293 293 284 282 284 287 284 285 281 270 nan nan 268 273 279 nan nan 271 281 282 277 272 271 269 270 272 nan nan nan nan nan nan nan nan
306 305 301 293 283 280 277 272 264 257 253 252 255 255 258 258 263 271 275 280 280 279 277 282 278 281 281 286 288 287 289 288 287 289 283 288 291 298 300 302 302 304 304 298 294 289 285 280 281 283 285 286 282 278 274 273 277 282 278 270 268 nan nan nan nan nan nan 271 272 283 282 283 283 280 275 274 274 nan nan nan nan nan nan nan nan
304 300 297 293 291 286 277 269 268 266 261 261 262 263 264 264 268 270 271 275 278 277 277 277 278 280 283 285 287 288 286 286 295 298 288 277 288 295 298 299 300 301 301 294 294 289 281 275 276 278 282 284 284 277 274 267 267 270 276 273 267 271 nan nan nan nan nan 270 275 283 284 285 284 282 283 282 277 nan nan nan nan nan nan nan nan
307 301 294 293 293 292 282 272 271 272 272 268 269 268 269 268 268 270 272 276 277 278 278 277 280 281 280 284 287 285 281 276 276 277 269 269 273 281 282 282 283 282 286 288 281 275 267 270 268 269 278 286 284 280 276 272 271 277 280 279 273 269 270 nan nan nan 269 276 277 280 278 279 280 285 285 282 nan nan nan nan nan nan nan nan nan
296 297 298 292 291 291 287 274 269 269 268 266 263 268 269 267 269 271 272 272 274 276 276 277 278 278 281 285 286 284 278 272 275 276 267 268 274 278 284 284 283 287 286 285 280 275 270 268 266 269 273 277 279 277 274 276 278 278 280 282 281 275 274 272 nan nan nan 277 284 284 281 286 293 294 289 287 nan nan nan nan nan nan nan nan nan
293 293 293 290 288 285 283 278 275 271 268 264 259 260 260 263 264 267 270 274 276 276 276 277 277 280 284 286 285 282 275 272 278 276 267 267 274 280 285 285 286 287 286 282 274 270 271 271 267 266 269 272 268 264 267 271 276 280 282 286 286 281 277 276 273 272 nan 281 288 286 276 276 285 288 nan nan nan nan nan nan nan nan nan nan nan
296 299 293 287 286 289 286 286 283 284 286 285 281 274 269 271 274 277 275 280 280 278 278 281 280 281 284 283 281 276 270 272 277 273 265 266 271 276 279 282 282 283 280 277 nan 272 272 272 269 260 262 264 264 261 261 267 272 277 285 286 284 282 280 279 275 273 279 281 279 281 269 268 277 286 nan nan nan nan nan nan nan nan nan nan nan
299 300 292 290 287 284 282 281 279 278 281 289 289 283 278 276 279 280 279 286 281 278 279 281 280 280 283 283 279 272 264 269 276 270 262 266 268 270 275 282 283 283 276 272 nan nan nan nan 269 261 258 263 263 261 259 260 268 276 283 282 282 283 283 279 276 277 nan nan nan 293 284 275 273 nan nan nan nan nan nan nan nan nan nan nan nan
300 298 295 289 287 288 286 271 266 266 269 277 282 284 282 282 281 281 282 286 282 276 279 279 281 281 281 284 280 269 266 270 271 265 264 266 270 271 275 276 276 264 267 nan nan nan nan 277 274 266 261 264 264 259 258 262 267 271 274 278 284 286 283 282 280 nan nan nan nan 292 283 267 271 281 291 nan 293 nan nan nan nan nan nan nan nan
293 297 296 292 288 288 283 276 267 267 268 273 280 283 282 283 283 283 285 288 283 276 273 276 278 279 278 278 275 267 267 270 269 266 260 264 269 274 278 273 275 273 258 257 nan nan nan nan nan 277 269 265 264 260 260 264 267 266 270 277 283 281 278 276 279 nan nan nan nan 280 286 nan nan 288 282 282 284 nan nan nan nan nan nan nan nan
295 297 292 280 272 270 276 272 268 269 272 274 280 285 283 283 285 283 286 292 288 277 272 274 273 271 270 272 270 264 265 268 267 262 260 259 265 271 275 277 277 271 262 nan nan nan nan nan 274 271 268 263 260 256 256 268 268 266 271 274 276 278 277 278 279 nan nan nan nan nan nan 278 290 286 280 277 282 285 288 nan nan nan nan nan nan
288 290 284 274 270 271 279 282 277 272 274 277 280 281 279 282 285 286 288 298 296 281 270 271 270 271 269 271 269 265 264 266 261 261 262 259 262 265 270 273 271 267 260 nan nan nan nan 268 267 271 267 259 257 257 255 260 271 270 268 272 274 280 282 278 280 nan nan nan nan nan nan 273 271 277 283 280 279 289 291 nan nan 289 288 284 280
294 288 281 277 275 279 286 288 284 280 285 296 302 299 293 288 285 290 293 298 294 283 270 266 267 265 264 265 266 264 262 258 255 254 256 257 259 264 270 270 267 266 259 261 nan 270 nan 270 272 271 272 265 264 263 266 269 267 269 268 271 275 280 280 278 280 nan nan nan nan nan nan 274 275 274 274 281 282 285 290 294 291 285 285 285 284
288 283 282 295 297 293 283 279 288 300 311 322 331 332 320 303 292 291 296 297 290 277 265 259 261 262 261 261 262 261 259 254 251 256 258 260 264 269 271 269 265 262 260 259 263 269 nan nan 279 274 268 264 261 260 266 270 273 274 269 270 277 278 277 276 277 nan nan nan nan nan nan nan 277 273 274 271 272 274 275 285 285 283 287 290 278
295 294 298 296 294 290 291 296 301 311 313 312 328 340 337 322 306 299 292 292 283 267 260 260 255 257 258 256 256 256 255 254 255 259 262 264 268 273 273 268 265 262 259 254 258 272 275 274 273 280 275 268 267 261 263 270 270 268 264 267 270 279 282 278 278 277 nan nan nan nan 282 283 281 278 277 276 271 268 267 260 254 265 286 285 263
296 299 300 302 294 303 312 311 309 309 304 300 306 312 316 325 322 311 298 285 277 267 263 257 253 258 257 252 254 254 253 256 259 260 264 265 266 271 268 269 265 262 257 247 253 270 276 273 267 265 274 272 269 269 268 269 267 263 262 263 266 275 279 275 273 279 277 nan nan 284 286 284 282 282 282 279 270 264 258 256 253 239 233 229 232
291 296 301 307 311 313 311 307 304 304 304 305 310 310 304 299 307 315 307 287 275 267 263 260 259 258 256 250 246 250 253 258 262 263 264 266 267 268 266 266 265 260 251 243 252 267 271 273 269 260 271 270 270 273 273 270 265 261 257 257 261 265 267 277 278 280 nan nan 283 285 286 285 284 284 284 282 278 273 268 258 249 238 238 232 232
291 299 301 305 308 310 304 305 306 306 303 299 300 298 294 293 294 309 311 288 269 269 267 265 263 259 261 258 243 234 254 262 265 267 270 269 266 263 263 265 264 261 250 243 251 263 268 266 270 266 265 261 272 273 274 271 267 260 nan nan 256 259 265 nan 272 278 280 nan 285 286 280 284 284 285 288 287 281 276 270 267 263 256 241 235 229
292 296 302 310 316 311 304 304 307 306 298 298 304 305 301 305 306 309 312 300 283 281 282 274 265 257 261 262 261 251 254 267 269 272 273 271 267 264 262 261 263 261 253 250 254 262 273 270 265 270 266 259 259 267 273 266 nan nan nan nan nan 263 nan nan nan nan 272 nan 280 281 284 286 284 276 287 289 281 nan nan nan 264 261 250 238 245
296 302 311 319 320 318 314 318 311 303 301 306 310 308 305 307 313 321 321 302 294 291 295 278 266 263 266 267 267 270 271 270 272 272 273 268 265 261 257 256 257 256 254 258 261 263 265 268 263 262 270 264 263 265 264 260 263 nan nan 264 263 261 266 273 nan nan nan nan 269 nan 283 282 276 282 286 nan nan nan nan nan nan 262 257 247 240
308 315 322 321 318 318 321 319 304 306 307 310 310 305 296 292 304 321 317 304 294 297 292 281 278 273 271 268 271 275 278 275 274 274 270 267 262 257 252 255 254 249 246 250 254 253 258 262 264 257 256 266 266 272 267 262 nan nan 265 259 252 248 256 262 267 266 265 267 nan nan 277 nan 288 nan nan nan nan nan nan nan nan 261 263 258 251
314 323 318 314 317 319 320 312 307 306 305 304 302 301 288 280 291 303 310 305 300 297 283 274 277 280 277 275 273 273 273 269 271 273 268 260 258 256 250 250 254 248 246 250 254 256 258 268 271 266 262 253 256 266 274 251 nan nan 251 nan nan nan nan nan nan nan nan 264 268 nan nan nan nan nan nan nan nan nan nan nan nan nan 255 255 253
311 316 316 317 315 316 317 312 303 294 288 290 291 285 277 275 287 295 297 305 319 313 290 270 270 272 274 270 266 264 261 259 262 264 257 252 253 254 250 248 250 250 251 253 257 259 258 260 260 261 263 262 255 261 266 254 259 267 nan nan nan nan nan nan nan nan nan nan nan nan nan nan nan nan nan nan nan nan nan nan nan nan 248 244 243
303 308 309 308 305 309 300 292 274 267 263 262 269 272 270 270 277 280 284 288 294 305 296 280 276 273 266 263 260 258 256 253 255 256 251 248 245 248 250 247 248 252 253 254 258 262 261 263 264 263 267 265 266 255 255 251 257 nan nan nan nan nan nan nan nan nan nan nan nan nan nan nan nan nan nan nan nan nan nan nan nan nan nan 243 245
269 270 269 262 254 250 249 246 241 240 240 238 244 252 252 263 275 286 294 296 296 301 312 302 280 274 268 262 261 259 257 254 252 250 245 242 243 245 249 250 249 253 256 258 258 255 257 258 262 265 267 267 269 265 nan 245 249 nan nan nan nan nan nan nan nan nan nan nan nan nan nan nan nan nan nan nan nan nan nan nan nan nan nan 249 247
272 270 268 259 244 239 241 239 234 231 235 232 229 233 225 231 247 261 264 272 283 271 265 271 274 263 259 269 267 262 260 260 255 251 246 243 244 247 249 250 253 257 258 260 261 264 260 259 258 262 268 267 263 266 264 260 nan nan nan nan nan nan nan nan nan nan nan nan nan nan nan nan nan nan nan nan nan nan nan nan nan nan nan nan 250
282 283 291 285 270 259 253 256 273 259 258 249 238 230 221 218 218 224 235 241 251 262 266 261 266 265 263 263 265 265 262 257 255 252 248 246 246 248 249 248 252 256 260 263 264 263 261 254 257 257 259 266 268 265 266 nan nan nan nan nan nan nan nan nan nan nan nan nan nan nan nan nan nan nan nan nan nan nan nan nan nan nan nan nan nan
275 282 288 282 277 273 272 305 330 309 297 296 278 255 239 228 221 222 224 234 244 254 258 260 262 262 266 258 257 262 261 257 252 251 249 248 249 250 250 248 249 254 257 257 257 262 268 262 256 257 259 260 260 259 261 nan nan nan nan nan nan nan nan nan nan nan nan nan nan nan nan nan nan nan nan nan nan nan nan nan nan nan nan nan nan
275 279 279 270 269 268 259 278 308 311 305 305 291 275 260 241 235 234 234 235 242 245 250 254 258 259 264 262 255 251 251 250 246 243 246 248 249 252 251 250 250 251 252 257 257 259 259 257 259 262 263 263 256 260 262 260 nan nan nan nan nan nan nan nan nan nan nan nan nan nan nan nan nan nan nan nan nan nan nan nan nan nan nan nan nan
271 274 276 276 275 267 260 268 298 308 289 290 286 277 263 250 247 246 243 244 243 245 245 247 251 252 251 254 253 243 241 246 246 245 245 246 247 249 249 248 248 248 250 255 257 258 257 255 250 246 242 255 258 259 257 254 254 nan nan nan nan nan nan nan nan nan nan nan nan nan nan nan nan nan nan nan nan nan nan nan nan nan nan nan nan